Regional Weather Roundup
Issued by NWS

Home | Current Version | Previous Version | Graphics & Text | Print | Product List | Glossary On
Versions: 1 2 3 4 5 6 7 8 9 10 11 12 13 14 15 16 17 18 19 20 21 22 23 24 25 26 27 28 29 30 31 32 33 34 35 36 37 38 39 40 41 42 43 44 45 46 47 48 49 50
000
ASUS43 KIND 271209
RWRIN

WEATHER ROUNDUP FOR INDIANA
NATIONAL WEATHER SERVICE INDIANAPOLIS IN
700 AM EST THU NOV 27 2014

NOTE: "FAIR" INDICATES FEW OR NO CLOUDS BELOW 12,000 FEET WITH NO
SIGNIFICANT WEATHER AND/OR OBSTRUCTIONS TO VISIBILITY.

* - STATION DOES NOT REPORT WEATHER SUCH AS PRECIPITATION OR FOG.

+ - STATION NOT QUALITY CONTROLLED BY THE NATIONAL WEATHER SERVICE.
    USE DATA WITH CAUTION...ESPECIALLY DEWPOINT AND RELATIVE
    HUMIDITY OBSERVATIONS.

INZ001>003-010>013-019-020-271300-
NORTHWEST INDIANA

CITY           SKY/WX    TMP DP  RH WIND       PRES   REMARKS
GARY /AIRPORT/ CLOUDY    28  19  69 W9        30.26R WCI  20
KNOX *+        CLOUDY    30  25  83 W13       30.21R WCI  20
LA PORTE +     FLURRIES  32  27  83 W7G16     30.21R WCI  26
6HR MIN TEMP:  29; 6HR MAX TEMP:  32;

MICHIGAN CITY+ LGT SNOW  32  27  80 NW10G18   30.22R WCI  24
MONTICELLO +   CLOUDY    28  26  94 W9        30.23R FOG     WCI  19
RENSSELAER +   CLOUDY    28  28 100 W12       30.25R FOG     WCI  18
VALPARAISO     CLOUDY    28  20  71 NW10G18   30.23R WCI  19
6HR MIN TEMP:  26; 6HR MAX TEMP:  29; 6HR PCP: TRACE;


$$

LMZ046-743>745-271300-
SOUTHERN LAKE MICHIGAN

STATION/POSITION TIME  TEMP WIND        PRES
                       AIR  DIR/SP/G
                 (UTC) (F)  (DEG/KT/KT) (MB)
MICHIGAN CITY    1200   31  290/ 20/ 22   N/A

$$

INZ004-005-014>016-021>024-271300-
NORTH CENTRAL INDIANA

CITY           SKY/WX    TMP DP  RH WIND       PRES   REMARKS
GOSHEN         CLOUDY    28  22  78 SW5       30.18S WCI  23
6HR MIN TEMP:  27; 6HR MAX TEMP:  28;

LOGANSPORT +   LGT SNOW  28  25  86 W6        30.23R WCI  22
PERU/GRISSOM   FLURRIES  27  27 100 W8        30.21R WCI  19
6HR MIN TEMP:  26; 6HR MAX TEMP:  28; 6HR PCP: TRACE;

ROCHESTER +    LGT SNOW  30  28  93 W5        30.21R WCI  25
SOUTH BEND     LGT SNOW  28  25  88 SW3       30.20R FOG
6HR MIN TEMP:  27; 6HR MAX TEMP:  28; 6HR PCP:  0.01;

WARSAW +       CLOUDY    28  23  80 W6        30.19S WCI  22

$$

INZ006>009-017-018-025>027-271300-
NORTHEAST INDIANA

CITY           SKY/WX    TMP DP  RH WIND       PRES   REMARKS
ANGOLA *+      CLOUDY    27  23  86 W3        30.15S
AUBURN +       CLOUDY    28  23  80 W5        30.18R WCI  23
FORT WAYNE     CLOUDY    27  22  81 W7        30.19R WCI  19
6HR MIN TEMP:  27; 6HR MAX TEMP:  29; 6HR PCP: TRACE;

HUNTINGTON +   CLOUDY    27  22  84 NW6       30.20R WCI  20
6HR MIN TEMP:  27; 6HR MAX TEMP:  28;


$$

INZ028-029-035-036-043>045-051>053-271300-
WEST CENTRAL INDIANA

CITY           SKY/WX    TMP DP  RH WIND       PRES   REMARKS
GREENCASTLE +  CLOUDY    25  21  86 NW3       30.26R
LAFAYETTE      CLOUDY    27  24  89 W8        30.25R FOG     WCI  19
6HR MIN TEMP:  22; 6HR MAX TEMP:  27;

TERRE HAUTE    CLEAR     25  19  78 NW3       30.29R
6HR MIN TEMP:  25; 6HR MAX TEMP:  29;


$$

INZ030>032-037>040-046>048-054>057-064-065-271300-
CENTRAL INDIANA

CITY           SKY/WX    TMP DP  RH WIND       PRES   REMARKS
CP ATTERBURY + CLOUDY    30  23  74 NW8       30.25R WCI  23
FRANKFORT +    CLOUDY    27  25  91 W10       30.25R WCI  17
INDIANAPOLIS   CLOUDY    25  19  78 NW9       30.23R WCI  15
6HR MIN TEMP:  24; 6HR MAX TEMP:  28; 6HR PCP: TRACE;

-EAGLE CREEK   CLOUDY    25  20  81 NW10      30.23R WCI  15
6HR MIN TEMP:  25; 6HR MAX TEMP:  28;

KOKOMO *+      CLOUDY    27  21  80 NW10      30.22R WCI  17
MARION +         N/A     27  22  82 NW8       30.21R HAZE    WCI  18
SHELBYVILLE    PTCLDY    27  20  75 NW12      30.23R WCI  17
6HR MIN TEMP:  27; 6HR MAX TEMP:  30;

ZIONSVILLE +   CLOUDY    26  21  79 NW9       30.23R WCI  17
6HR MIN TEMP:  25; 6HR MAX TEMP:  28;


$$

INZ033-034-041-042-049-050-058-059-271300-
EAST CENTRAL INDIANA

CITY           SKY/WX    TMP DP  RH WIND       PRES   REMARKS
MUNCIE         MOCLDY    26  22  84 NW9       30.19R WCI  17
6HR MIN TEMP:  26; 6HR MAX TEMP:  28;


$$

INZ060-061-067>069-081>083-085>088-271300-
SOUTHWEST INDIANA

CITY           SKY/WX    TMP DP  RH WIND       PRES   REMARKS
EVANSVILLE     CLOUDY    30  25  81 N13G20    30.32R WCI  20
6HR MIN TEMP:  30; 6HR MAX TEMP:  34; 6HR PCP:  0.02;

HUNTINGBURG *+ CLOUDY    30  25  80 NW12      30.29R WCI  21
6HR MIN TEMP:  30; 6HR MAX TEMP:  34;

WASHINGTON +   CLOUDY    29  26  88 NW10      30.29R WCI  20
6HR MIN TEMP:  29; 6HR MAX TEMP:  32;


$$

INZ062-063-066-070>080-084-089>092-271300-
SOUTH CENTRAL AND SOUTHEAST INDIANA

CITY           SKY/WX    TMP DP  RH WIND       PRES   REMARKS
BLOOMINGTON    MOCLDY    27  21  78 NW8       30.25R WCI  19
6HR MIN TEMP:  27; 6HR MAX TEMP:  30; 6HR PCP: TRACE;


$$




USA.gov is the U.S. government's official web portal to all federal, state and local government web resources and services.